K4MZ Weather Reports


time (UTC)temp
C
wind
direction
speed
KPH
gust
KPH
rain 1hr
cm
rain 24hr
cm
rain mn
cm
humidity
%
barometer
mb
20260510140539 22 291 3.2 8.0 0.00 0.00 0.00 53 1015.7
20260510135519 21 312 3.2 8.0 0.00 0.00 0.00 56 1015.7
20260510134516 21 322 4.8 11.3 0.00 0.00 0.00 58 1015.7
20260510133519 21 346 3.2 8.0 0.00 0.00 0.00 61 1015.7
20260510132520 20 342 3.2 8.0 0.00 0.00 0.00 65 1015.6
20260510131521 20 336 3.2 6.4 0.00 0.00 0.00 68 1015.7
20260510130517 20 240 1.6 8.0 0.00 0.00 0.00 72 1015.6
20260510125517 19 211 1.6 4.8 0.00 0.00 0.00 77 1015.7
20260510124601 19 317 1.6 4.8 0.00 0.00 0.00 82 1015.7
20260510123520 18 119 1.6 3.2 0.00 0.00 0.00 85 1015.6
20260510122658 18 82 1.6 3.2 0.00 0.00 0.00 86 1015.5
20260510121538 18 95 0.0 3.2 0.00 0.00 0.00 88 1015.3
20260510120538 16 97 0.0 3.2 0.00 0.00 0.00 91 1015.1
20260510115521 15 56 0.0 1.6 0.00 0.00 0.00 92 1015.0
20260510114518 13 72 0.0 1.6 0.00 0.00 0.00 93 1014.8
20260510113538 12 78 1.6 1.6 0.00 0.00 0.00 93 1014.7
20260510112608 11 74 0.0 1.6 0.00 0.00 0.00 92 1014.5
20260510111527 11 93 0.0 1.6 0.00 0.00 0.00 92 1014.4
20260510110548 11 62 0.0 1.6 0.00 0.00 0.00 91 1014.2
20260510105528 11 92 0.0 0.0 0.00 0.00 0.00 91 1013.9
20260510104528 11 77 0.0 1.6 0.00 0.00 0.00 91 1013.7
20260510103528 11 2 0.0 1.6 0.00 0.00 0.00 91 1013.6
20260510102548 11 70 0.0 1.6 0.00 0.00 0.00 91 1013.5
20260510101549 11 20 0.0 1.6 0.00 0.00 0.00 90 1013.5
20260510100529 11 67 0.0 0.0 0.00 0.00 0.00 90 1013.5
20260510095529 11 119 0.0 1.6 0.00 0.00 0.00 90 1013.3
20260510094529 11 98 0.0 1.6 0.00 0.00 0.00 89 1013.4
20260510093549 11 110 0.0 1.6 0.00 0.00 0.00 89 1013.3
20260510092530 12 114 0.0 1.6 0.00 0.00 0.00 88 1013.1
20260510091550 12 68 0.0 1.6 0.00 0.00 0.00 88 1013.0
20260510090530 12 132 1.6 1.6 0.00 0.00 0.00 88 1012.7
20260510085530 13 95 0.0 1.6 0.00 0.00 0.00 87 1012.6
20260510084550 13 68 0.0 1.6 0.00 0.00 0.00 86 1012.6
20260510083530 13 97 0.0 1.6 0.00 0.00 0.00 85 1012.5
20260510082632 14 104 0.0 1.6 0.00 0.00 0.00 85 1012.3
20260510080536 16 96 1.6 4.8 0.00 0.00 0.00 84 1012.1
20260510075611 16 330 3.2 4.8 0.00 0.00 0.00 84 1011.8
20260510074552 16 319 3.2 4.8 0.00 0.00 0.00 86 1011.7
20260510073523 16 320 4.8 9.7 0.00 0.00 0.00 87 1011.7
20260510072714 14 315 3.2 6.4 0.00 0.00 0.00 89 1011.9
20260510071517 14 78 1.6 3.2 0.00 0.00 0.00 88 1012.0
20260510070517 15 86 1.6 3.2 0.00 0.00 0.00 88 1012.0
20260510065537 15 117 1.6 1.6 0.00 0.00 0.00 87 1012.1
20260510064558 15 123 0.0 3.2 0.00 0.00 0.00 86 1012.0
20260510063516 15 162 1.6 3.2 0.00 0.00 0.00 86 1012.1
20260510062518 16 100 0.0 1.6 0.00 0.00 0.00 85 1012.0
20260510061532 17 100 1.6 3.2 0.00 0.00 0.00 84 1012.1
20260510060518 17 143 0.0 1.6 0.00 0.00 0.00 85 1012.1
20260510055518 17 315 3.2 8.0 0.00 0.00 0.00 86 1012.2
20260510054518 17 311 3.2 8.0 0.00 0.00 0.00 87 1012.2
20260510052557 15 266 0.0 6.4 0.00 0.00 0.00 89 1012.3
20260510051517 15 126 0.0 3.2 0.00 0.00 0.00 89 1012.4
20260510045519 15 110 1.6 1.6 0.00 0.00 0.00 88 1012.4
20260510044518 15 105 0.0 1.6 0.00 0.00 0.00 87 1012.6
20260510043559 15 100 1.6 3.2 0.00 0.00 0.00 87 1012.5
20260510042538 15 111 0.0 1.6 0.00 0.00 0.00 86 1012.5
20260510041538 15 93 0.0 1.6 0.00 0.00 0.00 86 1012.5
20260510040539 15 108 0.0 1.6 0.00 0.00 0.00 85 1012.4
20260510035518 15 9 0.0 1.6 0.00 0.00 0.00 84 1012.4
20260510034559 15 60 0.0 1.6 0.00 0.00 0.00 84 1012.5
20260510033519 15 101 0.0 1.6 0.00 0.00 0.00 83 1012.3
20260510032519 15 89 0.0 0.0 0.00 0.00 0.00 83 1012.2
20260510031539 15 0.0 0.0 0.00 0.00 0.00 82 1012.2
20260510030519 16 107 0.0 1.6 0.00 0.00 0.00 82 1012.1
20260510025519 16 110 1.6 1.6 0.00 0.00 0.00 81 1012.0
20260510024520 16 94 0.0 1.6 0.00 0.00 0.00 81 1012.0
20260510023520 16 112 0.0 1.6 0.00 0.00 0.00 80 1012.0
20260510022540 16 144 0.0 1.6 0.00 0.00 0.00 80 1011.9
20260510021520 16 116 0.0 1.6 0.00 0.00 0.00 79 1011.8
20260510020521 16 105 0.0 1.6 0.00 0.00 0.00 78 1011.7
20260510015541 16 118 0.0 1.6 0.00 0.00 0.00 77 1011.4
20260510014521 17 95 0.0 0.0 0.00 0.00 0.00 77 1011.2
20260510013521 17 114 1.6 1.6 0.00 0.00 0.00 76 1011.1
20260510012541 17 123 0.0 1.6 0.00 0.00 0.00 76 1010.9
20260510011517 17 125 0.0 1.6 0.00 0.00 0.00 75 1010.7
20260510010517 18 118 0.0 1.6 0.00 0.00 0.00 74 1010.5
20260510005521 18 135 0.0 1.6 0.00 0.00 0.00 73 1010.4
20260510004518 18 117 0.0 1.6 0.00 0.00 0.00 72 1010.2
20260510003619 19 143 0.0 1.6 0.00 0.00 0.00 70 1010.2
20260510002659 20 130 1.6 4.8 0.00 0.00 0.00 69 1010.1
20260510001558 20 134 1.6 4.8 0.00 0.00 0.00 67 1010.1
20260510000539 21 116 1.6 3.2 0.00 0.00 0.00 65 1010.0
20260509235539 21 101 1.6 3.2 0.00 0.00 0.00 64 1009.9
20260509234619 22 114 1.6 4.8 0.00 0.00 0.00 63 1009.8
20260509233516 22 101 1.6 6.4 0.00 0.00 0.00 62 1009.7
20260509232539 22 87 1.6 6.4 0.00 0.00 0.00 62 1009.6
20260509231519 22 115 1.6 8.0 0.00 0.00 0.00 62 1009.4
20260509230519 22 27 1.6 4.8 0.00 0.00 0.00 61 1009.3
20260509225558 22 101 1.6 4.8 0.00 0.00 0.00 61 1009.2
20260509224517 22 124 1.6 4.8 0.00 0.00 0.00 61 1009.2
20260509223517 22 94 3.2 6.4 0.00 0.00 0.00 61 1009.2
20260509222520 22 100 3.2 6.4 0.00 0.00 0.00 61 1009.4
20260509221558 22 85 1.6 6.4 0.00 0.00 0.00 59 1009.4
20260509220518 22 86 1.6 4.8 0.00 0.00 0.00 58 1009.2
20260509215538 23 114 3.2 6.4 0.00 0.00 0.00 56 1009.3
20260509214601 23 97 1.6 6.4 0.00 0.00 0.00 55 1009.3
20260509213518 24 84 1.6 4.8 0.00 0.00 0.00 52 1009.1
20260509212518 24 124 1.6 3.2 0.00 0.00 0.00 50 1008.9
20260509211619 25 299 1.6 6.4 0.00 0.00 0.00 49 1008.8
20260509210519 26 189 1.6 8.0 0.00 0.00 0.00 46 1008.8
20260509205519 25 263 1.6 9.7 0.00 0.00 0.00 48 1008.7
20260509204539 26 100 3.2 9.7 0.00 0.00 0.00 47 1008.7
20260509203539 26 134 1.6 8.0 0.00 0.00 0.00 47 1008.7
20260509202519 25 313 3.2 11.3 0.00 0.00 0.00 49 1008.9
20260509201517 25 120 1.6 8.0 0.00 0.00 0.00 50 1009.1
20260509200519 24 104 3.2 11.3 0.00 0.00 0.00 54 1009.2
20260509195520 23 76 3.2 6.4 0.00 0.00 0.00 55 1009.2
20260509194517 23 126 1.6 6.4 0.00 0.00 0.00 52 1009.3
20260509193658 24 140 3.2 11.3 0.00 0.00 0.00 49 1009.3
20260509192601 25 316 4.8 14.5 0.00 0.00 0.00 48 1009.3
20260509191518 24 132 1.6 9.7 0.00 0.00 0.00 49 1009.3
20260509190537 23 54 1.6 8.0 0.00 0.00 0.00 51 1009.5
20260509185517 23 88 3.2 9.7 0.00 0.00 0.00 50 1009.7
20260509184518 23 103 1.6 8.0 0.00 0.00 0.00 51 1009.7
20260509183519 23 113 3.2 8.0 0.00 0.00 0.00 51 1010.0
20260509182558 23 253 4.8 12.9 0.00 0.00 0.00 52 1010.0
20260509181519 23 113 3.2 11.3 0.00 0.00 0.00 53 1010.3
20260509180559 22 117 4.8 11.3 0.00 0.00 0.00 54 1010.4
20260509175619 22 95 3.2 6.4 0.00 0.00 0.00 54 1010.4
20260509174600 22 89 3.2 9.7 0.00 0.00 0.00 55 1010.5
20260509173600 23 108 4.8 14.5 0.00 0.00 0.00 54 1010.4
20260509172540 22 97 4.8 11.3 0.00 0.00 0.00 54 1010.6
20260509170516 22 351 3.2 12.9 0.00 0.00 0.00 57 1011.0
20260509165540 22 324 4.8 12.9 0.00 0.00 0.00 58 1011.0
20260509164520 21 111 4.8 14.5 0.00 0.00 0.00 60 1011.1
20260509163537 21 129 3.2 11.3 0.00 0.00 0.00 59 1011.2
20260509162558 21 101 4.8 11.3 0.00 0.00 0.00 60 1011.3
20260509161518 20 104 3.2 8.0 0.00 0.00 0.00 61 1011.4
20260509160538 21 79 3.2 11.3 0.00 0.00 0.00 60 1011.5
20260509155538 21 90 3.2 9.7 0.00 0.00 0.00 59 1011.3
20260509154619 21 103 3.2 11.3 0.00 0.00 0.00 61 1011.4
20260509153538 21 118 3.2 11.3 0.00 0.00 0.00 61 1011.5
20260509152559 21 124 3.2 6.4 0.00 0.00 0.00 62 1011.6
20260509151619 20 73 3.2 12.9 0.00 0.00 0.00 64 1011.7
20260509150519 20 115 3.2 9.7 0.00 0.00 0.00 66 1011.8
20260509145520 19 132 3.2 6.4 0.00 0.00 0.00 67 1012.0
20260509144516 18 301 3.2 8.0 0.00 0.00 0.00 68 1012.1
20260509143536 18 128 3.2 11.3 0.00 0.00 0.00 68 1012.1
20260509142620 18 91 3.2 9.7 0.00 0.00 0.00 69 1012.0
20260509141600 18 194 3.2 8.0 0.00 0.00 0.00 70 1011.9